Location: Lussas
(44.6119°N, 4.4726°E)
Time: 14:41:17
(UTC+00:00)

ASTRO F (AKARI) - Pass Details

Date: 26 November 2020
Orbit: 398 x 519 km, 98.2° (Epoch: 27 January)

Event Time Altitude Azimuth Distance (km) Brightness Sun altitude
Rises 05:38:17 0° 9° (N) 2,320 7.9 -13.1°
Reaches altitude 10° 05:40:17 10° 4° (N) 1,457 6.9 -12.8°
Maximum altitude 05:43:19 54° 287° (WNW) 497 4.2 -12.2°
Drops below altitude 10° 05:46:21 10° 209° (SSW) 1,462 6.9 -11.7°
Sets 05:48:22 0° 204° (SSW) 2,330 8.0 -11.4°
